Home   Weather   Khanty-Mansiysk   Past weeks
Flag for Russia

Past Weather in Khanty-Mansiysk, Russia — Yesterday and Last 2 Weeks

Now
63 °F

Passing clouds.


Feels Like: 63 °F
Forecast: 65 / 49 °F
Wind: 10 mph from West

Location: Hanty-Mansijsk

Current Time: Jun 19, 2019 at 2:59:16 pm

Latest Report: Jun 19, 2019 at 2:30 pm


Visibility: N/A

Pressure: 29.65 "Hg

Humidity: 39%

Dew Point: 37 °F

Location of Khanty-MansiyskLocation

Past Weather in Khanty-Mansiysk — Graph

°F

Khanty-Mansiysk Temperature Yesterday

Maximum temperature yesterday: 59 °F (at 10:00 am)
Minimum temperature yesterday: 48 °F (at 12:00 am)
Average temperature yesterday: 53 °F

High & Low Weather Summary for the Past Weeks

 TemperatureHumidityPressure
High73 °F (Jun 4, 3:30 pm)94% (Jun 4, 10:00 pm)29.95 "Hg (Jun 4, 10:00 pm)
Low36 °F (Jun 14, 8:30 am)30% (Jun 9, 1:00 pm)29.33 "Hg (Jun 12, 10:30 pm)
Average56 °F68%29.64 "Hg
* Reported Jun 4 1:00 pm — Jun 19 1:30 pm, Khanty-Mansiysk. Weather by CustomWeather, © 2019

Note: Actual official high and low records may vary slightly from our data, if they occured in-between our weather recording intervals... More about our weather records

Advertising

Khanty-Mansiysk Weather History for the Previous 24 Hours

Scroll right to see more
 ConditionsComfort  
Time TempWeatherWind HumidityBarometerVisibility
1:30 pm
Wed, Jun 19
61 °FPassing clouds.10 mph42%29.65 "HgN/A
1:00 pm59 °FPassing clouds.8 mph42%29.65 "HgN/A
12:30 pm59 °FPassing clouds.10 mph45%29.65 "HgN/A
12:00 pm59 °FPassing clouds.10 mph42%29.65 "HgN/A
11:30 am57 °FPassing clouds.8 mph48%29.65 "HgN/A
11:00 am55 °FPassing clouds.6 mph51%29.65 "HgN/A
10:30 am57 °FPassing clouds.8 mph48%29.65 "HgN/A
10:00 am55 °FPassing clouds.6 mph51%29.62 "HgN/A
9:30 am55 °FPassing clouds.3 mph44%29.65 "HgN/A
9:00 am54 °FSunny.3 mph51%29.65 "Hg10 mi
8:30 am54 °FSunny.3 mph54%29.65 "Hg10 mi
8:00 am52 °FPassing clouds.3 mph58%29.62 "HgN/A
7:30 am52 °FScattered clouds.3 mph67%29.62 "HgN/A
7:00 am50 °FPassing clouds.3 mph71%29.62 "HgN/A
6:30 am50 °FPassing clouds.3 mph71%29.62 "HgN/A
6:00 am50 °FPassing clouds.3 mph76%29.62 "HgN/A
5:30 am52 °FPassing clouds.3 mph77%29.62 "HgN/A
5:00 am48 °FSunny.3 mph94%29.62 "Hg10 mi
4:30 am48 °FSunny.3 mph94%29.62 "Hg10 mi
4:00 am46 °FSunny.3 mph93%29.59 "Hg10 mi
3:30 am46 °FSunny.1 mph87%29.59 "Hg10 mi
3:00 am45 °FSunny.No wind93%29.59 "Hg10 mi
2:30 am45 °FClear.1 mph93%29.59 "Hg10 mi
2:00 am45 °FClear.3 mph93%29.59 "Hg10 mi
1:30 am46 °FClear.3 mph82%29.59 "Hg10 mi
1:00 am46 °FClear.3 mph82%29.59 "Hg10 mi
12:30 am50 °FClear.3 mph71%29.59 "Hg10 mi
12:00 am50 °FClear.3 mph71%29.59 "Hg10 mi
11:30 pm
Tue, Jun 18
50 °FClear.1 mph71%29.59 "Hg10 mi
11:00 pm52 °FClear.3 mph62%29.59 "Hg10 mi
10:30 pm52 °FClear.1 mph62%29.59 "Hg10 mi
10:00 pm54 °FSunny.3 mph58%29.59 "Hg10 mi
9:30 pm54 °FSunny.3 mph58%29.59 "Hg10 mi
9:00 pm54 °FPassing clouds.3 mph58%29.59 "HgN/A
8:30 pm54 °FSunny.3 mph58%29.59 "Hg10 mi
8:00 pm54 °FPassing clouds.3 mph54%29.59 "HgN/A
7:30 pm55 °FSunny.3 mph55%29.59 "Hg10 mi
7:00 pm55 °FPassing clouds.6 mph51%29.56 "HgN/A
6:30 pm57 °FSunny.6 mph48%29.56 "Hg10 mi
6:00 pm57 °FScattered clouds.3 mph48%29.56 "HgN/A
5:30 pm57 °FScattered clouds.6 mph51%29.56 "HgN/A
5:00 pm57 °FScattered clouds.6 mph55%29.56 "HgN/A
4:30 pm59 °FScattered clouds.8 mph45%29.56 "HgN/A
4:00 pm57 °FScattered clouds.3 mph55%29.56 "HgN/A
3:30 pm59 °FScattered clouds.6 mph51%29.53 "HgN/A
3:00 pm59 °FScattered clouds.8 mph51%29.53 "HgN/A
2:30 pm57 °FScattered clouds.6 mph59%29.53 "HgN/A
2:00 pm57 °FScattered clouds.3 mph63%29.53 "HgN/A
Weather by CustomWeather, © 2019

See weather overview